Springfield, OH

5:10 PM EDT on July 20, 2017 (GMT -0400)
Springfield-Beckley Municipal

Weather History for KSGH - November, 2012

Change the Weather History Date:

Friday, November 23, 2012

  Actual Average (KFFO) Record (KFFO)
Temperature  
Mean Temperature 39 °F -  
Max Temperature 52 °F 48 °F 71 °F (1999)
Min Temperature 26 °F 31 °F 15 °F (2008)
Degree Days  
Heating Degree Days 26    
Moisture  
Dew Point 30 °F    
Average Humidity 68    
Maximum Humidity 93    
Minimum Humidity 55    
Precipitation  
Precipitation 0.01 in - - ()
Sea Level Pressure  
Sea Level Pressure 30.03 in    
Wind  
Wind Speed 15 mph (West)    
Max Wind Speed 28 mph    
Max Gust Speed 40 mph    
Visibility 7 miles    
Events      
Averages and records for this station are not official NWS values.
T = Trace of Precipitation, MM = Missing Value Source: NWS Daily Summary

Daily Weather History Graph

Daily Weather History Graph

Search for Another Location

Airport or City:

Trip Planner

Search our weather history database for the weather conditions in past years. The results will help you decide how hot, cold, wet, or windy it might be!

Date:

Astronomy

Nov. 23, 2012 Rise Set
Actual Time 7:29 AM EST 5:13 PM EST
Civil Twilight 7:00 AM EST 5:43 PM EST
Nautical Twilight 6:27 AM EST 6:16 PM EST
Astronomical Twilight 5:54 AM EST 6:48 PM EST
Moon 2:27 PM EST (11/23) 2:47 AM EST (11/23)
Length of Visible Light 10h 43m
Length of Day
9h 44m
Waxing Gibbous, 79% of the Moon is Illuminated
Nov 23
Waxing Gibbous
Nov 28
Full
Dec 6
Last Quarter
Dec 13
New
Dec 20
First Quarter

Hourly Weather History & Observations

Time (EST) Temp. Windchill Dew Point Humidity Pressure Visibility Wind Dir Wind Speed Gust Speed Precip Events Conditions
12:56 AM 50.0 °F - 38.8 °F 66% 29.98 in 8.0 mi SW 11.5 mph - N/A   Partly Cloudy
1:56 AM 50.9 °F - 37.9 °F 61% 29.96 in 8.0 mi SW 15.0 mph - N/A   Scattered Clouds
2:56 AM 50.9 °F - 37.9 °F 61% 29.95 in 8.0 mi SW 12.7 mph - N/A   Overcast
3:04 AM 51.8 °F - 39.2 °F 62% 29.95 in 8.0 mi SW 12.7 mph - N/A   Overcast
3:56 AM 52.9 °F - 38.8 °F 59% 29.93 in 8.0 mi SW 15.0 mph - N/A   Overcast
4:56 AM 52.9 °F - 41.9 °F 66% 29.92 in 7.0 mi WSW 17.3 mph 23.0 mph N/A   Overcast
5:56 AM 50.9 °F - 43.9 °F 77% 29.92 in 4.0 mi WSW 16.1 mph - N/A   Haze
6:33 AM 48.2 °F - 46.4 °F 93% 29.92 in 2.5 mi WSW 12.7 mph - 0.01 in   Overcast
6:41 AM 48.2 °F - 46.4 °F 93% 29.93 in 5.0 mi WSW 15.0 mph - 0.01 in   Overcast
6:56 AM 48.9 °F - 46.9 °F 93% 29.93 in 4.0 mi WSW 15.0 mph - 0.01 in   Overcast
7:28 AM 48.2 °F - 42.8 °F 82% 29.93 in 7.0 mi West 13.8 mph 24.2 mph N/A   Overcast
7:56 AM 45.9 °F 39.7 °F 37.9 °F 74% 29.96 in 7.0 mi WNW 13.8 mph 20.7 mph N/A   Mostly Cloudy
8:32 AM 44.6 °F 37.8 °F 37.4 °F 76% 29.96 in 6.0 mi West 15.0 mph 23.0 mph N/A   Haze
8:42 AM 42.8 °F 35.4 °F 33.8 °F 70% 29.97 in 7.0 mi West 15.0 mph - N/A   Mostly Cloudy
8:56 AM 39.9 °F 31.4 °F 34.0 °F 79% 29.98 in 6.0 mi West 16.1 mph - N/A   Haze
9:56 AM 39.9 °F 30.2 °F 32.9 °F 76% 29.99 in 6.0 mi West 20.7 mph 27.6 mph N/A   Haze
10:56 AM 41.9 °F 33.1 °F 30.0 °F 63% 30.01 in 6.0 mi West 19.6 mph 25.3 mph N/A   Haze
11:28 AM 42.8 °F 33.5 °F 30.2 °F 61% 29.99 in 7.0 mi West 23.0 mph - N/A   Mostly Cloudy
11:56 AM 43.0 °F 33.5 °F 29.1 °F 58% 29.99 in 6.0 mi West 24.2 mph 31.1 mph N/A   Haze
12:56 PM 39.9 °F 30.0 °F 26.1 °F 58% 29.99 in 7.0 mi West 21.9 mph 35.7 mph N/A   Mostly Cloudy
1:56 PM 37.9 °F 27.1 °F 25.2 °F 60% 29.99 in 7.0 mi West 23.0 mph 28.8 mph N/A   Overcast
2:56 PM 36.9 °F 24.7 °F 22.1 °F 55% 30.01 in 7.0 mi West 27.6 mph 40.3 mph N/A   Mostly Cloudy
3:56 PM 34.0 °F 21.3 °F 22.1 °F 62% 30.05 in 7.0 mi WNW 25.3 mph 33.4 mph N/A   Overcast
4:38 PM 32.0 °F 19.2 °F 21.2 °F 64% 30.07 in 7.0 mi WNW 23.0 mph 31.1 mph N/A   Overcast
4:56 PM 31.1 °F 20.1 °F 21.0 °F 66% 30.10 in 7.0 mi WNW 16.1 mph 29.9 mph N/A   Overcast
5:56 PM 30.0 °F 17.2 °F 19.0 °F 64% 30.13 in 8.0 mi WNW 20.7 mph 29.9 mph N/A   Overcast
6:56 PM 29.1 °F 17.1 °F 18.1 °F 64% 30.16 in 8.0 mi WNW 17.3 mph 25.3 mph N/A   Overcast
7:56 PM 28.0 °F 18.1 °F 18.1 °F 66% 30.18 in 8.0 mi NW 11.5 mph - N/A   Overcast
8:56 PM 28.0 °F 17.5 °F 17.1 °F 63% 30.19 in 8.0 mi West 12.7 mph 18.4 mph N/A   Overcast
9:29 PM 28.4 °F 19.1 °F 17.6 °F 64% 30.16 in 8.0 mi WNW 10.4 mph - N/A   Overcast
9:56 PM 28.0 °F 18.1 °F 18.1 °F 66% 30.19 in 8.0 mi West 11.5 mph - N/A   Mostly Cloudy
10:56 PM 27.1 °F 15.9 °F 17.1 °F 66% 30.18 in 8.0 mi West 13.8 mph - N/A   Overcast
11:29 PM 26.6 °F 16.2 °F 17.6 °F 69% 30.15 in 8.0 mi West 11.5 mph - N/A   Overcast
11:56 PM 27.1 °F 16.9 °F 17.1 °F 66% 30.17 in 8.0 mi West 11.5 mph - N/A   Overcast